Time,TemperatureF,DewpointF,PressureIn,WindDirection,WindDirectionDegrees,WindSpeedMPH,WindSpeedGustMPH,Humidity,HourlyPrecipIn,Conditions,Clouds,dailyrainin,SoftwareType,DateUTC
2013-02-10 00:02:00,30.4,28.0,29.91,ENE,68,4.0,-999.0,92,-99.99,,,0.00,weatherlink.com 1.10,2013-02-10 06:02:00,
2013-02-10 00:17:00,30.3,28.0,29.91,ESE,102,1.0,-999.0,92,-99.99,,,0.00,weatherlink.com 1.10,2013-02-10 06:17:00,
2013-02-10 00:32:00,30.3,28.0,29.91,SE,128,1.0,-999.0,92,-99.99,,,0.00,weatherlink.com 1.10,2013-02-10 06:32:00,
2013-02-10 00:47:00,30.2,28.0,29.91,ENE,71,1.0,-999.0,92,-99.99,,,0.00,weatherlink.com 1.10,2013-02-10 06:47:00,
2013-02-10 01:02:00,30.1,28.0,29.91,ESE,103,2.0,-999.0,91,-99.99,,,0.00,weatherlink.com 1.10,2013-02-10 07:02:00,
2013-02-10 01:17:00,29.9,28.0,29.90,SE,132,3.0,-999.0,91,-99.99,,,0.00,weatherlink.com 1.10,2013-02-10 07:17:00,
2013-02-10 01:32:00,29.8,27.0,29.90,ESE,115,0.0,-999.0,90,-99.99,,,0.00,weatherlink.com 1.10,2013-02-10 07:32:00,
2013-02-10 01:47:00,29.7,27.0,29.89,ESE,113,2.0,-999.0,90,-99.99,,,0.00,weatherlink.com 1.10,2013-02-10 07:47:00,
2013-02-10 02:02:00,29.8,27.0,29.88,East,89,4.0,-999.0,89,-99.99,,,0.00,weatherlink.com 1.10,2013-02-10 08:02:00,
2013-02-10 02:17:00,29.7,27.0,29.87,SE,134,1.0,-999.0,89,-99.99,,,0.00,weatherlink.com 1.10,2013-02-10 08:17:00,
2013-02-10 02:32:00,29.7,27.0,29.86,ESE,118,4.0,-999.0,89,-99.99,,,0.00,weatherlink.com 1.10,2013-02-10 08:32:00,
2013-02-10 02:47:00,29.6,27.0,29.85,East,98,2.0,-999.0,89,-99.99,,,0.00,weatherlink.com 1.10,2013-02-10 08:47:00,
2013-02-10 03:02:00,29.5,27.0,29.84,ENE,63,2.0,-999.0,89,-99.99,,,0.00,weatherlink.com 1.10,2013-02-10 09:02:00,
2013-02-10 03:17:00,29.4,27.0,29.83,ENE,64,3.0,-999.0,89,-99.99,,,0.00,weatherlink.com 1.10,2013-02-10 09:17:00,
2013-02-10 03:32:00,29.4,27.0,29.81,East,79,5.0,-999.0,89,-99.99,,,0.00,weatherlink.com 1.10,2013-02-10 09:32:00,
2013-02-10 03:47:00,29.3,27.0,29.80,East,98,4.0,-999.0,89,-99.99,,,0.00,weatherlink.com 1.10,2013-02-10 09:47:00,
2013-02-10 04:02:00,29.3,27.0,29.80,NE,45,4.0,-999.0,90,-99.99,,,0.00,weatherlink.com 1.10,2013-02-10 10:02:00,
2013-02-10 04:17:00,29.3,27.0,29.79,ENE,57,3.0,-999.0,89,-99.99,,,0.00,weatherlink.com 1.10,2013-02-10 10:17:00,
2013-02-10 04:32:00,29.3,27.0,29.78,NE,50,4.0,-999.0,89,-99.99,,,0.00,weatherlink.com 1.10,2013-02-10 10:32:00,
2013-02-10 04:47:00,29.2,27.0,29.78,ENE,68,4.0,-999.0,90,-99.99,,,0.00,weatherlink.com 1.10,2013-02-10 10:47:00,
2013-02-10 05:02:00,29.0,27.0,29.75,East,87,4.0,-999.0,90,-99.99,,,0.00,weatherlink.com 1.10,2013-02-10 11:02:00,
2013-02-10 05:17:00,28.6,26.0,29.75,ENE,71,4.0,-999.0,91,-99.99,,,0.00,weatherlink.com 1.10,2013-02-10 11:17:00,
2013-02-10 05:32:00,28.4,26.0,29.74,East,94,4.0,-999.0,91,-99.99,,,0.00,weatherlink.com 1.10,2013-02-10 11:32:00,
2013-02-10 05:47:00,28.1,26.0,29.72,ENE,65,5.0,-999.0,92,-99.99,,,0.00,weatherlink.com 1.10,2013-02-10 11:47:00,
2013-02-10 06:02:00,28.1,26.0,29.69,East,82,5.0,-999.0,92,-99.99,,,0.00,weatherlink.com 1.10,2013-02-10 12:02:00,
2013-02-10 06:17:00,28.1,26.0,29.70,ENE,76,4.0,-999.0,92,-99.99,,,0.00,weatherlink.com 1.10,2013-02-10 12:17:00,
2013-02-10 06:33:00,28.1,26.0,29.70,ESE,102,5.0,-999.0,92,-99.99,,,0.00,weatherlink.com 1.10,2013-02-10 12:33:00,
2013-02-10 06:48:00,28.1,26.0,29.69,NE,52,5.0,-999.0,92,-99.99,,,0.00,weatherlink.com 1.10,2013-02-10 12:48:00,
2013-02-10 07:03:00,28.1,26.0,29.69,NE,51,5.0,-999.0,92,-99.99,,,0.00,weatherlink.com 1.10,2013-02-10 13:03:00,
2013-02-10 07:18:00,28.2,26.0,29.70,NE,55,6.0,-999.0,92,-99.99,,,0.00,weatherlink.com 1.10,2013-02-10 13:18:00,
2013-02-10 07:33:00,28.3,26.0,29.66,East,93,3.0,-999.0,92,-99.99,,,0.00,weatherlink.com 1.10,2013-02-10 13:33:00,
2013-02-10 07:48:00,28.4,26.0,29.64,ESE,103,2.0,-999.0,92,-99.99,,,0.00,weatherlink.com 1.10,2013-02-10 13:48:00,
2013-02-10 08:03:00,28.4,26.0,29.63,East,96,6.0,-999.0,92,-99.99,,,0.00,weatherlink.com 1.10,2013-02-10 14:03:00,
2013-02-10 08:18:00,28.4,26.0,29.64,ESE,103,6.0,-999.0,92,-99.99,,,0.00,weatherlink.com 1.10,2013-02-10 14:18:00,
2013-02-10 08:33:00,28.4,26.0,29.64,East,82,6.0,-999.0,92,-99.99,,,0.00,weatherlink.com 1.10,2013-02-10 14:33:00,
2013-02-10 08:48:00,28.5,27.0,29.62,NE,50,5.0,-999.0,92,-99.99,,,0.00,weatherlink.com 1.10,2013-02-10 14:48:00,
2013-02-10 09:03:00,28.7,27.0,29.61,NE,49,4.0,-999.0,92,-99.99,,,0.00,weatherlink.com 1.10,2013-02-10 15:03:00,
2013-02-10 09:18:00,28.8,27.0,29.59,East,83,3.0,-999.0,92,-99.99,,,0.00,weatherlink.com 1.10,2013-02-10 15:18:00,
2013-02-10 09:33:00,29.5,28.0,29.56,East,92,4.0,-999.0,93,-99.99,,,0.00,weatherlink.com 1.10,2013-02-10 15:33:00,
2013-02-10 09:48:00,29.8,28.0,29.57,ESE,107,2.0,-999.0,93,-99.99,,,0.00,weatherlink.com 1.10,2013-02-10 15:48:00,
2013-02-10 10:03:00,29.6,28.0,29.56,East,94,4.0,-999.0,93,-99.99,,,0.00,weatherlink.com 1.10,2013-02-10 16:03:00,
2013-02-10 10:18:00,29.2,28.0,29.55,NE,50,4.0,-999.0,93,-99.99,,,0.00,weatherlink.com 1.10,2013-02-10 16:18:00,
2013-02-10 10:33:00,29.0,27.0,29.54,ESE,105,5.0,-999.0,93,-99.99,,,0.00,weatherlink.com 1.10,2013-02-10 16:33:00,
2013-02-10 10:48:00,28.9,27.0,29.54,ESE,111,7.0,-999.0,93,-99.99,,,0.00,weatherlink.com 1.10,2013-02-10 16:48:00,
2013-02-10 11:03:00,28.9,27.0,29.50,ESE,122,4.0,-999.0,93,-99.99,,,0.00,weatherlink.com 1.10,2013-02-10 17:03:00,
2013-02-10 11:18:00,28.8,27.0,29.49,ESE,103,3.0,-999.0,94,-99.99,,,0.00,weatherlink.com 1.10,2013-02-10 17:18:00,
2013-02-10 11:33:00,29.1,28.0,29.50,ENE,78,3.0,-999.0,94,-99.99,,,0.00,weatherlink.com 1.10,2013-02-10 17:33:00,
2013-02-10 11:48:00,29.2,28.0,29.46,ENE,57,2.0,-999.0,94,-99.99,,,0.00,weatherlink.com 1.10,2013-02-10 17:48:00,
2013-02-10 12:03:00,29.4,28.0,29.45,ENE,60,2.0,-999.0,94,-99.99,,,0.00,weatherlink.com 1.10,2013-02-10 18:03:00,
2013-02-10 12:18:00,29.8,28.0,29.44,NE,51,3.0,-999.0,94,-99.99,,,0.00,weatherlink.com 1.10,2013-02-10 18:18:00,
2013-02-10 12:33:00,30.0,29.0,29.43,ENE,69,2.0,-999.0,95,-99.99,,,0.00,weatherlink.com 1.10,2013-02-10 18:33:00,
2013-02-10 12:48:00,30.2,29.0,29.41,ENE,69,2.0,-999.0,95,-99.99,,,0.00,weatherlink.com 1.10,2013-02-10 18:48:00,
2013-02-10 13:03:00,30.3,29.0,29.41,NE,47,3.0,-999.0,95,-99.99,,,0.00,weatherlink.com 1.10,2013-02-10 19:03:00,
2013-02-10 13:18:00,30.3,29.0,29.39,NE,40,2.0,-999.0,95,-99.99,,,0.00,weatherlink.com 1.10,2013-02-10 19:18:00,
2013-02-10 13:33:00,30.6,29.0,29.38,ENE,71,1.0,-999.0,95,-99.99,,,0.00,weatherlink.com 1.10,2013-02-10 19:33:00,
2013-02-10 13:49:00,31.4,30.0,29.37,ESE,102,0.0,-999.0,95,-99.99,,,0.00,weatherlink.com 1.10,2013-02-10 19:49:00,
2013-02-10 14:04:00,32.2,31.0,29.35,East,93,1.0,-999.0,95,-99.99,,,0.00,weatherlink.com 1.10,2013-02-10 20:04:00,
2013-02-10 14:19:00,32.8,32.0,29.35,East,83,3.0,-999.0,96,-99.99,,,0.00,weatherlink.com 1.10,2013-02-10 20:19:00,
2013-02-10 14:34:00,32.6,32.0,29.35,ESE,110,2.0,-999.0,96,-99.99,,,0.00,weatherlink.com 1.10,2013-02-10 20:34:00,
2013-02-10 14:49:00,32.7,32.0,29.34,East,82,2.0,-999.0,95,-99.99,,,0.00,weatherlink.com 1.10,2013-02-10 20:49:00,
2013-02-10 15:04:00,32.8,32.0,29.33,ENE,67,0.0,-999.0,95,-99.99,,,0.00,weatherlink.com 1.10,2013-02-10 21:04:00,
2013-02-10 15:19:00,32.9,32.0,29.33,ESE,104,2.0,-999.0,96,-99.99,,,0.00,weatherlink.com 1.10,2013-02-10 21:19:00,
2013-02-10 15:34:00,32.9,32.0,29.32,ENE,69,2.0,-999.0,96,-99.99,,,0.00,weatherlink.com 1.10,2013-02-10 21:34:00,
2013-02-10 15:49:00,33.0,32.0,29.32,ENE,77,3.0,-999.0,96,-99.99,,,0.00,weatherlink.com 1.10,2013-02-10 21:49:00,
2013-02-10 16:04:00,33.0,32.0,29.31,ESE,106,3.0,-999.0,96,-99.99,,,0.00,weatherlink.com 1.10,2013-02-10 22:04:00,
2013-02-10 16:19:00,33.0,32.0,29.31,East,80,1.0,-999.0,96,-99.99,,,0.00,weatherlink.com 1.10,2013-02-10 22:19:00,
2013-02-10 16:34:00,33.0,32.0,29.30,NE,52,4.0,-999.0,96,-99.99,,,0.00,weatherlink.com 1.10,2013-02-10 22:34:00,
2013-02-10 16:49:00,33.0,32.0,29.31,ENE,68,3.0,-999.0,96,-99.99,,,0.00,weatherlink.com 1.10,2013-02-10 22:49:00,
2013-02-10 17:04:00,33.1,32.0,29.31,ENE,71,4.0,-999.0,96,-99.99,,,0.00,weatherlink.com 1.10,2013-02-10 23:04:00,
2013-02-10 17:19:00,33.2,32.0,29.31,ESE,111,1.0,-999.0,96,-99.99,,,0.00,weatherlink.com 1.10,2013-02-10 23:19:00,
2013-02-10 17:34:00,33.2,32.0,29.30,East,79,0.0,-999.0,96,-99.99,,,0.00,weatherlink.com 1.10,2013-02-10 23:34:00,
2013-02-10 17:49:00,33.2,32.0,29.30,NE,51,3.0,-999.0,96,-99.99,,,0.00,weatherlink.com 1.10,2013-02-10 23:49:00,
2013-02-10 18:19:00,33.2,32.0,29.30,ENE,57,0.0,-999.0,96,-99.99,,,0.00,weatherlink.com 1.10,2013-02-11 00:19:00,
2013-02-10 18:34:00,33.1,32.0,29.30,NE,51,2.0,-999.0,96,-99.99,,,0.00,weatherlink.com 1.10,2013-02-11 00:34:00,
2013-02-10 18:49:00,33.1,32.0,29.30,NNE,20,0.0,-999.0,96,-99.99,,,0.00,weatherlink.com 1.10,2013-02-11 00:49:00,
2013-02-10 19:04:00,32.9,32.0,29.30,NE,47,2.0,-999.0,96,-99.99,,,0.00,weatherlink.com 1.10,2013-02-11 01:04:00,
2013-02-10 19:19:00,32.3,31.0,29.30,NE,45,2.0,-999.0,96,-99.99,,,0.00,weatherlink.com 1.10,2013-02-11 01:19:00,
2013-02-10 19:34:00,31.9,31.0,29.30,NE,46,0.0,-999.0,96,-99.99,,,0.00,weatherlink.com 1.10,2013-02-11 01:34:00,
2013-02-10 19:49:00,31.5,31.0,29.29,NE,55,2.0,-999.0,96,-99.99,,,0.00,weatherlink.com 1.10,2013-02-11 01:49:00,
2013-02-10 20:04:00,31.1,30.0,29.29,ENE,58,3.0,-999.0,96,-99.99,,,0.00,weatherlink.com 1.10,2013-02-11 02:04:00,
2013-02-10 20:19:00,30.9,30.0,29.29,NNE,32,0.0,-999.0,96,-99.99,,,0.00,weatherlink.com 1.10,2013-02-11 02:19:00,
2013-02-10 20:34:00,30.8,30.0,29.29,NNE,33,0.0,-999.0,96,-99.99,,,0.00,weatherlink.com 1.10,2013-02-11 02:34:00,
2013-02-10 20:49:00,30.7,30.0,29.29,NE,40,0.0,-999.0,96,-99.99,,,0.00,weatherlink.com 1.10,2013-02-11 02:49:00,
2013-02-10 21:04:00,30.3,29.0,29.30,NNE,18,0.0,-999.0,96,-99.99,,,0.00,weatherlink.com 1.10,2013-02-11 03:04:00,
2013-02-10 21:19:00,30.1,29.0,29.29,NNE,19,1.0,-999.0,96,-99.99,,,0.00,weatherlink.com 1.10,2013-02-11 03:19:00,
2013-02-10 21:34:00,29.9,29.0,29.29,NNW,342,0.0,-999.0,96,-99.99,,,0.00,weatherlink.com 1.10,2013-02-11 03:34:00,
2013-02-10 21:49:00,29.8,29.0,29.30,ENE,57,0.0,-999.0,96,-99.99,,,0.00,weatherlink.com 1.10,2013-02-11 03:49:00,
2013-02-10 22:04:00,29.8,29.0,29.30,West,262,0.0,-999.0,96,-99.99,,,0.00,weatherlink.com 1.10,2013-02-11 04:04:00,
2013-02-10 22:19:00,29.9,29.0,29.30,NW,310,0.0,-999.0,96,-99.99,,,0.00,weatherlink.com 1.10,2013-02-11 04:19:00,
2013-02-10 22:34:00,29.9,29.0,29.31,NNW,341,0.0,-999.0,96,-99.99,,,0.00,weatherlink.com 1.10,2013-02-11 04:34:00,
2013-02-10 22:49:00,30.1,29.0,29.31,NNW,341,0.0,-999.0,96,-99.99,,,0.00,weatherlink.com 1.10,2013-02-11 04:49:00,
2013-02-10 23:04:00,30.2,29.0,29.32,WNW,288,0.0,-999.0,96,-99.99,,,0.00,weatherlink.com 1.10,2013-02-11 05:04:00,
2013-02-10 23:19:00,30.4,29.0,29.32,NNW,342,0.0,-999.0,96,-99.99,,,0.00,weatherlink.com 1.10,2013-02-11 05:19:00,
2013-02-10 23:34:00,30.5,30.0,29.32,West,273,1.0,-999.0,96,-99.99,,,0.00,weatherlink.com 1.10,2013-02-11 05:34:00,
2013-02-10 23:49:00,30.6,30.0,29.33,WSW,257,0.0,-999.0,96,-99.99,,,0.00,weatherlink.com 1.10,2013-02-11 05:49:00,